GW2328 Weather Reports


Display with metric or nautical units.
time (UTC)temp
F
wind
direction
speed
MPH
gust
MPH
rain 1hr
in
rain 24hr
in
rain mn
in
humidity
%
barometer
mb
20260906093934 73 146 0.0 0.0 0.00 0.00 0.00 95 1017.5
20260906093430 73 144 0.0 0.0 0.00 0.00 0.00 95 1017.2
20260906092930 73 146 0.0 0.0 0.00 0.00 0.00 95 1017.3
20260906092430 73 146 0.0 0.0 0.00 0.00 0.00 95 1017.4
20260906091925 73 138 0.0 0.0 0.00 0.00 0.00 95 1017.0
20260906091421 73 144 0.0 0.0 0.00 0.00 0.00 95 1017.2
20260906090917 73 142 0.0 0.0 0.00 0.00 0.00 95 1017.3
20260906090412 73 142 0.0 0.0 0.00 0.00 0.00 95 1017.2
20260906085906 74 136 0.0 0.0 0.00 0.00 0.00 94 1017.0
20260906085400 74 143 0.0 0.0 0.00 0.00 0.00 94 1016.9
20260906084900 74 141 0.0 0.0 0.00 0.00 0.00 94 1017.3
20260906084354 74 139 0.0 0.0 0.00 0.00 0.00 94 1017.0
20260906083848 74 141 0.0 0.0 0.00 0.00 0.00 94 1016.9
20260906083344 74 139 0.0 0.0 0.00 0.00 0.00 94 1016.9
20260906082843 74 140 0.0 0.0 0.00 0.00 0.00 94 1017.2
20260906082339 74 140 0.0 0.0 0.00 0.00 0.00 94 1017.0
20260906081835 74 140 0.0 0.0 0.00 0.00 0.00 94 1017.3
20260906081330 74 140 0.0 0.0 0.00 0.00 0.00 94 1017.0
20260906080826 74 139 0.0 0.0 0.00 0.00 0.00 94 1017.2
20260906080322 74 147 0.0 0.0 0.00 0.00 0.00 93 1017.0
20260906075821 75 147 0.0 0.0 0.00 0.00 0.00 93 1017.0
20260906075316 75 145 0.0 0.0 0.00 0.00 0.00 93 1017.2
20260906074811 75 147 0.0 0.0 0.00 0.00 0.00 93 1016.8
20260906074311 75 151 0.0 0.0 0.00 0.00 0.00 93 1016.8
20260906073810 75 146 0.0 0.0 0.00 0.00 0.00 93 1016.8
20260906073305 75 148 0.0 0.0 0.00 0.00 0.00 93 1016.8
20260906072802 75 140 0.0 0.0 0.00 0.00 0.00 93 1016.9
20260906072257 75 144 0.0 1.0 0.00 0.00 0.00 93 1017.0
20260906071752 75 142 0.0 0.0 0.00 0.00 0.00 93 1016.8
20260906071253 75 149 0.0 1.0 0.00 0.00 0.00 93 1017.0
20260906070749 75 146 0.0 0.0 0.00 0.00 0.00 93 1016.8
20260906070244 75 141 0.0 0.0 0.00 0.00 0.00 93 1016.9
20260906065744 75 143 0.0 0.0 0.00 0.00 0.00 94 1017.2
20260906065239 75 142 0.0 0.0 0.00 0.00 0.00 94 1017.0
20260906064735 76 149 1.0 1.0 0.00 0.00 0.00 94 1017.0
20260906064231 76 147 0.0 0.0 0.00 0.00 0.00 94 1017.0
20260906063725 76 148 0.0 0.0 0.00 0.00 0.00 94 1017.0
20260906063221 76 149 0.0 0.0 0.00 0.00 0.00 94 1017.3
20260906062716 76 137 0.0 0.0 0.00 0.00 0.00 94 1017.3
20260906062215 76 143 0.0 0.0 0.00 0.00 0.00 94 1017.0
20260906061712 76 140 0.0 0.0 0.00 0.00 0.00 94 1017.3
20260906061207 76 129 0.0 0.0 0.00 0.00 0.00 94 1017.2
20260906060703 76 142 0.0 0.0 0.00 0.00 0.00 94 1017.4
20260906060200 76 139 0.0 0.0 0.00 0.00 0.00 93 1017.3
20260906055655 76 141 0.0 0.0 0.00 0.00 0.00 93 1017.2
20260906055150 76 141 0.0 0.0 0.00 0.00 0.00 93 1017.0
20260906054646 76 141 0.0 0.0 0.00 0.00 0.00 93 1017.2
20260906054140 77 141 0.0 0.0 0.00 0.00 0.00 93 1017.4
20260906053637 77 141 0.0 0.0 0.00 0.00 0.00 93 1017.3
20260906053137 77 140 0.0 0.0 0.00 0.00 0.00 93 1017.3
20260906052633 77 140 0.0 0.0 0.00 0.00 0.00 92 1017.4
20260906052130 77 147 0.0 0.0 0.00 0.00 0.00 92 1017.3
20260906051626 77 147 0.0 0.0 0.00 0.00 0.00 92 1017.3
20260906051126 77 148 0.0 0.0 0.00 0.00 0.00 92 1017.3
20260906050621 77 144 0.0 0.0 0.00 0.00 0.00 92 1017.2
20260906050116 77 143 0.0 0.0 0.00 0.00 0.00 92 1017.2
20260906045614 77 143 0.0 0.0 0.00 0.00 0.00 92 1017.3
20260906045110 77 143 0.0 0.0 0.00 0.00 0.00 91 1017.0
20260906044606 78 143 0.0 0.0 0.00 0.00 0.00 92 1016.7
20260906044101 77 140 0.0 0.0 0.00 0.00 0.00 91 1016.7
20260906043557 77 139 0.0 0.0 0.00 0.00 0.00 91 1016.7
20260906043053 77 137 0.0 0.0 0.00 0.00 0.00 91 1016.5
20260906042551 78 146 0.0 0.0 0.00 0.00 0.00 91 1016.5
20260906042046 78 146 0.0 0.0 0.00 0.00 0.00 91 1016.4
20260906041543 78 146 0.0 0.0 0.00 0.00 0.00 91 1016.4
20260906041037 78 146 0.0 0.0 0.00 0.00 0.00 91 1016.6
20260906040532 78 146 0.0 0.0 0.00 0.00 0.00 91 1016.4
20260906040028 78 146 0.0 0.0 0.00 0.00 0.00 91 1016.4
20260906035523 78 147 0.0 0.0 0.00 0.00 0.00 90 1016.4
20260906035019 78 147 0.0 0.0 0.00 0.00 0.00 90 1016.4
20260906034518 78 147 0.0 0.0 0.00 0.00 0.00 90 1016.4
20260906034014 78 146 0.0 1.0 0.00 0.00 0.00 90 1016.3
20260906033508 78 154 0.0 1.0 0.00 0.00 0.00 90 1016.3
20260906033004 79 146 0.0 0.0 0.00 0.00 0.00 89 1016.3
20260906032500 79 143 0.0 0.0 0.00 0.00 0.00 89 1016.5
20260906031954 79 140 1.0 2.0 0.00 0.00 0.00 89 1016.3
20260906031450 79 137 0.0 0.0 0.00 0.00 0.00 89 1016.1
20260906030945 79 144 0.0 0.0 0.00 0.00 0.00 89 1016.0
20260906030440 79 146 0.0 0.0 0.00 0.00 0.00 88 1016.1
20260906025934 79 148 0.0 0.0 0.00 0.00 0.00 88 1016.1
20260906025428 79 144 0.0 1.0 0.00 0.00 0.00 88 1016.1
20260906024927 80 144 0.0 0.0 0.00 0.00 0.00 87 1016.2
20260906024426 80 144 0.0 0.0 0.00 0.00 0.00 87 1016.2
20260906023922 80 143 0.0 0.0 0.00 0.00 0.00 87 1016.2
20260906023418 80 144 0.0 0.0 0.00 0.00 0.00 86 1016.3
20260906022918 80 145 0.0 0.0 0.00 0.00 0.00 86 1015.9
20260906022413 80 144 0.0 0.0 0.00 0.00 0.00 86 1016.2
20260906021909 80 144 0.0 0.0 0.00 0.00 0.00 85 1015.8
20260906021408 81 144 0.0 0.0 0.00 0.00 0.00 85 1015.8
20260906020903 81 143 0.0 0.0 0.00 0.00 0.00 85 1015.9
20260906020357 81 143 0.0 0.0 0.00 0.00 0.00 84 1015.8
20260906015852 81 143 0.0 0.0 0.00 0.00 0.00 84 1015.9
20260906015351 82 144 0.0 0.0 0.00 0.00 0.00 84 1015.8
20260906014850 82 147 0.0 0.0 0.00 0.00 0.00 83 1015.5
20260906014345 82 139 0.0 0.0 0.00 0.00 0.00 83 1015.8
20260906013841 82 139 0.0 0.0 0.00 0.00 0.00 82 1015.6
20260906013336 82 139 0.0 0.0 0.00 0.00 0.00 82 1015.6
20260906012832 82 139 0.0 0.0 0.00 0.00 0.00 81 1015.8
20260906012327 82 138 0.0 0.0 0.00 0.00 0.00 81 1015.4
20260906011826 83 138 0.0 0.0 0.00 0.00 0.00 80 1015.6
20260906011322 83 143 0.0 0.0 0.00 0.00 0.00 79 1015.4
20260906010818 83 143 0.0 0.0 0.00 0.00 0.00 78 1015.2
20260906010314 84 146 0.0 1.0 0.00 0.00 0.00 78 1015.1
20260906005809 84 138 0.0 1.0 0.00 0.00 0.00 77 1015.3
20260906005307 84 151 0.0 0.0 0.00 0.00 0.00 76 1015.1
20260906004806 85 142 0.0 0.0 0.00 0.00 0.00 75 1015.2
20260906004301 85 142 0.0 0.0 0.00 0.00 0.00 74 1015.0
20260906003756 85 142 0.0 0.0 0.00 0.00 0.00 74 1015.1
20260906003252 86 142 0.0 0.0 0.00 0.00 0.00 73 1015.0
20260906002747 86 142 0.0 0.0 0.00 0.00 0.00 72 1014.9
20260906002247 86 142 0.0 0.0 0.00 0.00 0.00 71 1015.1
20260906001742 87 142 0.0 0.0 0.00 0.00 0.00 70 1014.9
20260906001237 87 142 0.0 0.0 0.00 0.00 0.00 69 1015.2
20260906000733 88 140 0.0 0.0 0.00 0.00 0.00 67 1015.3
20260906000234 88 140 0.0 0.0 0.00 0.00 0.00 66 1015.3
20260905235732 88 140 0.0 0.0 0.00 0.00 0.00 65 1015.6
20260905235227 88 140 0.0 0.0 0.00 0.00 0.00 64 1015.3
20260905234723 89 140 0.0 0.0 0.00 0.00 0.00 64 1015.6
20260905234218 89 140 0.0 0.0 0.00 0.00 0.00 64 1015.4
20260905233713 89 140 0.0 0.0 0.00 0.00 0.00 63 1015.4
20260905233212 90 140 0.0 0.0 0.00 0.00 0.00 62 1015.4
20260905232707 90 140 0.0 0.0 0.00 0.00 0.00 62 1015.5
20260905232203 90 140 0.0 0.0 0.00 0.00 0.00 61 1015.6
20260905231659 91 139 0.0 0.0 0.00 0.00 0.00 60 1015.6
20260905231154 91 140 0.0 0.0 0.00 0.00 0.00 59 1015.5
20260905230650 91 139 0.0 0.0 0.00 0.00 0.00 59 1015.4
20260905230148 92 140 0.0 0.0 0.00 0.00 0.00 58 1015.3
20260905225647 92 134 0.0 0.0 0.00 0.00 0.00 57 1015.1
20260905225142 92 136 0.0 1.0 0.00 0.00 0.00 57 1015.1
20260905224641 93 136 0.0 0.0 0.00 0.00 0.00 56 1015.0
20260905224136 93 123 0.0 1.0 0.00 0.00 0.00 55 1015.0
20260905223633 94 138 0.0 0.0 0.00 0.00 0.00 55 1015.2
20260905223130 94 138 0.0 0.0 0.00 0.00 0.00 53 1015.0
20260905222625 95 123 0.0 1.0 0.00 0.00 0.00 53 1014.8
20260905222120 96 142 0.0 2.0 0.00 0.00 0.00 52 1015.1
20260905221615 96 168 1.0 2.0 0.00 0.00 0.00 51 1015.0
20260905221112 96 152 1.0 1.0 0.00 0.00 0.00 51 1014.8
20260905220607 96 148 1.0 2.0 0.00 0.00 0.00 51 1014.9
20260905220103 96 136 1.0 2.0 0.00 0.00 0.00 51 1014.9
20260905215602 97 128 2.0 2.0 0.00 0.00 0.00 51 1015.0
20260905215058 97 206 1.0 2.0 0.00 0.00 0.00 51 1015.1
20260905214554 97 123 2.0 2.0 0.00 0.00 0.00 51 1015.1
20260905214049 96 168 2.0 2.0 0.00 0.00 0.00 51 1015.3
20260905213544 96 142 1.0 3.0 0.00 0.00 0.00 50 1015.1
20260905213039 97 162 1.0 3.0 0.00 0.00 0.00 49 1015.0
20260905212534 97 117 1.0 2.0 0.00 0.00 0.00 49 1015.2
20260905212034 97 115 3.0 3.0 0.00 0.00 0.00 49 1015.0
20260905211529 97 43 2.0 5.0 0.00 0.00 0.00 49 1015.2
20260905211025 98 3 3.0 6.0 0.00 0.00 0.00 49 1015.4
20260905210520 98 182 3.0 3.0 0.00 0.00 0.00 49 1015.3
20260905210020 98 132 1.0 1.0 0.00 0.00 0.00 49 1015.4
20260905205520 98 76 2.0 2.0 0.00 0.00 0.00 49 1015.4
20260905205019 98 134 2.0 2.0 0.00 0.00 0.00 49 1015.4
20260905204514 98 139 2.0 2.0 0.00 0.00 0.00 49 1015.2
20260905204009 97 118 1.0 2.0 0.00 0.00 0.00 48 1015.6
20260905203504 98 122 2.0 3.0 0.00 0.00 0.00 48 1015.5
20260905202959 98 2 3.0 3.0 0.00 0.00 0.00 48 1015.7
20260905202454 98 121 2.0 3.0 0.00 0.00 0.00 47 1015.6
20260905201949 99 260 2.0 3.0 0.00 0.00 0.00 46 1015.7
20260905201445 101 160 2.0 2.0 0.00 0.00 0.00 45 1015.8
20260905200944 101 106 1.0 2.0 0.00 0.00 0.00 45 1015.8
20260905200440 100 153 1.0 2.0 0.00 0.00 0.00 46 1016.0
20260905195939 100 161 1.0 2.0 0.00 0.00 0.00 46 1015.8
20260905195434 99 157 1.0 2.0 0.00 0.00 0.00 47 1015.9
20260905194930 100 140 1.0 1.0 0.00 0.00 0.00 47 1016.0
20260905194428 100 159 0.0 1.0 0.00 0.00 0.00 47 1016.2
20260905193923 100 141 0.0 2.0 0.00 0.00 0.00 47 1016.1
20260905193418 100 167 1.0 3.0 0.00 0.00 0.00 46 1016.1
20260905192913 100 155 0.0 1.0 0.00 0.00 0.00 47 1016.5
20260905192408 100 133 0.0 1.0 0.00 0.00 0.00 47 1016.4
20260905191903 100 117 1.0 2.0 0.00 0.00 0.00 47 1016.5
20260905191402 99 155 0.0 2.0 0.00 0.00 0.00 47 1016.8
20260905190901 98 153 1.0 2.0 0.00 0.00 0.00 49 1016.7
20260905190354 98 113 1.0 2.0 0.00 0.00 0.00 48 1016.9
20260905185853 99 163 1.0 2.0 0.00 0.00 0.00 48 1016.8
20260905185349 99 133 0.0 2.0 0.00 0.00 0.00 48 1017.0
20260905184848 98 141 1.0 2.0 0.00 0.00 0.00 49 1017.0
20260905184347 98 155 0.0 1.0 0.00 0.00 0.00 48 1017.0
20260905183845 98 154 0.0 2.0 0.00 0.00 0.00 48 1017.3
20260905183341 97 128 0.0 1.0 0.00 0.00 0.00 49 1017.4
20260905182836 98 163 0.0 3.0 0.00 0.00 0.00 47 1017.3
20260905182335 98 153 0.0 0.0 0.00 0.00 0.00 48 1017.4
20260905181831 98 159 0.0 2.0 0.00 0.00 0.00 47 1017.4
20260905181330 98 156 1.0 2.0 0.00 0.00 0.00 47 1017.6
20260905180830 97 155 0.0 1.0 0.00 0.00 0.00 49 1017.3
20260905180325 97 137 0.0 2.0 0.00 0.00 0.00 48 1017.7
20260905175820 97 203 1.0 2.0 0.00 0.00 0.00 48 1017.8
20260905175314 98 179 1.0 1.0 0.00 0.00 0.00 47 1017.6
20260905174809 98 255 0.0 2.0 0.00 0.00 0.00 49 1017.9
20260905174305 98 136 0.0 1.0 0.00 0.00 0.00 49 1017.9
20260905173801 97 170 1.0 2.0 0.00 0.00 0.00 51 1017.8
20260905173257 96 158 1.0 2.0 0.00 0.00 0.00 50 1017.9
20260905172756 96 166 1.0 2.0 0.00 0.00 0.00 50 1018.1
20260905172255 96 152 0.0 2.0 0.00 0.00 0.00 50 1017.9
20260905171751 96 164 0.0 2.0 0.00 0.00 0.00 51 1018.0
20260905171248 96 142 0.0 2.0 0.00 0.00 0.00 51 1018.1
20260905170744 95 147 0.0 2.0 0.00 0.00 0.00 50 1018.3
20260905170239 96 142 1.0 3.0 0.00 0.00 0.00 50 1018.1
20260905165738 95 130 0.0 2.0 0.00 0.00 0.00 50 1018.4
20260905165234 95 123 0.0 1.0 0.00 0.00 0.00 50 1018.4
20260905164734 96 133 0.0 3.0 0.00 0.00 0.00 49 1018.4
20260905164228 96 186 1.0 2.0 0.00 0.00 0.00 49 1018.4
20260905163725 95 151 1.0 2.0 0.00 0.00 0.00 49 1018.4
20260905163220 94 176 1.0 2.0 0.00 0.00 0.00 49 1018.8
20260905162717 94 156 1.0 2.0 0.00 0.00 0.00 50 1018.9
20260905162216 94 156 1.0 2.0 0.00 0.00 0.00 49 1018.9
20260905161711 94 166 1.0 3.0 0.00 0.00 0.00 50 1019.1
20260905161209 93 147 1.0 1.0 0.00 0.00 0.00 51 1018.8
20260905160708 93 153 1.0 1.0 0.00 0.00 0.00 51 1018.9
20260905160208 93 142 1.0 1.0 0.00 0.00 0.00 52 1018.9
20260905155702 93 165 1.0 1.0 0.00 0.00 0.00 52 1018.9
20260905155202 92 167 1.0 2.0 0.00 0.00 0.00 53 1019.0
20260905154655 91 197 1.0 1.0 0.00 0.00 0.00 55 1018.9
20260905154151 91 181 1.0 2.0 0.00 0.00 0.00 54 1018.8
20260905153641 91 152 0.0 1.0 0.00 0.00 0.00 55 1018.9
20260905153136 91 176 2.0 2.0 0.00 0.00 0.00 55 1018.9
20260905152631 90 140 0.0 1.0 0.00 0.00 0.00 57 1019.1
20260905152126 89 134 1.0 2.0 0.00 0.00 0.00 58 1018.9
20260905151621 89 141 0.0 1.0 0.00 0.00 0.00 59 1019.0
20260905151116 88 156 1.0 1.0 0.00 0.00 0.00 60 1019.1
20260905150611 87 154 0.0 1.0 0.00 0.00 0.00 62 1019.1
20260905150109 87 151 1.0 2.0 0.00 0.00 0.00 63 1019.2
20260905145603 86 144 0.0 2.0 0.00 0.00 0.00 65 1019.3
20260905145102 86 152 0.0 0.0 0.00 0.00 0.00 66 1019.4
20260905144557 85 154 1.0 3.0 0.00 0.00 0.00 67 1019.4
20260905144056 84 144 0.0 1.0 0.00 0.00 0.00 69 1019.5
20260905143555 84 152 1.0 1.0 0.00 0.00 0.00 71 1019.4
20260905143051 84 139 0.0 1.0 0.00 0.00 0.00 73 1019.5
20260905142549 83 154 1.0 2.0 0.00 0.00 0.00 75 1019.5
20260905142044 82 147 0.0 1.0 0.00 0.00 0.00 77 1019.4
20260905141538 82 150 0.0 2.0 0.00 0.00 0.00 79 1019.4
20260905141035 81 149 0.0 1.0 0.00 0.00 0.00 81 1019.8
20260905140530 80 146 0.0 1.0 0.00 0.00 0.00 81 1019.6
20260905140029 79 155 1.0 1.0 0.00 0.00 0.00 82 1019.7
20260905135525 79 153 0.0 1.0 0.00 0.00 0.00 83 1019.8
20260905135019 79 158 1.0 2.0 0.00 0.00 0.00 83 1019.9
20260905134514 78 156 0.0 1.0 0.00 0.00 0.00 84 1019.8
20260905134013 78 157 0.0 1.0 0.00 0.00 0.00 85 1020.1
20260905133509 77 151 0.0 1.0 0.00 0.00 0.00 86 1020.3
20260905133008 77 145 0.0 0.0 0.00 0.00 0.00 86 1020.3
20260905132503 77 142 1.0 1.0 0.00 0.00 0.00 87 1020.2
20260905132003 77 165 0.0 1.0 0.00 0.00 0.00 88 1020.4
20260905131459 76 147 0.0 2.0 0.00 0.00 0.00 89 1020.3
20260905130954 76 153 0.0 1.0 0.00 0.00 0.00 90 1020.3
20260905130453 76 148 0.0 1.0 0.00 0.00 0.00 91 1020.4
20260905125952 76 150 0.0 1.0 0.00 0.00 0.00 91 1020.1
20260905125447 76 146 0.0 1.0 0.00 0.00 0.00 92 1020.3
20260905124943 75 146 0.0 1.0 0.00 0.00 0.00 93 1020.3
20260905124439 75 150 1.0 1.0 0.00 0.00 0.00 94 1020.3
20260905123934 75 143 0.0 3.0 0.00 0.00 0.00 94 1020.6
20260905123431 74 150 1.0 1.0 0.00 0.00 0.00 94 1020.5
20260905122926 74 153 0.0 0.0 0.00 0.00 0.00 94 1020.0
20260905122425 74 149 0.0 0.0 0.00 0.00 0.00 94 1020.1
20260905121921 74 141 0.0 2.0 0.00 0.00 0.00 93 1019.8
20260905121417 74 138 0.0 2.0 0.00 0.00 0.00 93 1019.8
20260905120915 74 139 1.0 1.0 0.00 0.00 0.00 93 1019.0
20260905120410 74 144 0.0 0.0 0.00 0.00 0.00 93 1018.9
20260905115904 74 144 0.0 0.0 0.00 0.00 0.00 92 1018.8
20260905115403 74 159 0.0 2.0 0.00 0.00 0.00 92 1018.8
20260905114853 74 147 1.0 1.0 0.00 0.00 0.00 92 1018.4
20260905114352 74 149 0.0 0.0 0.00 0.00 0.00 92 1018.5
20260905113846 74 154 0.0 0.0 0.00 0.00 0.00 92 1018.5
20260905113342 74 154 0.0 0.0 0.00 0.00 0.00 91 1018.5
20260905112837 74 154 0.0 0.0 0.00 0.00 0.00 91 1018.5
20260905112332 74 155 0.0 1.0 0.00 0.00 0.00 91 1018.4
20260905111827 74 149 0.0 0.0 0.00 0.00 0.00 91 1018.5
20260905111321 74 154 0.0 1.0 0.00 0.00 0.00 90 1018.4
20260905110820 75 139 0.0 0.0 0.00 0.00 0.00 90 1018.5
20260905110314 75 139 0.0 0.0 0.00 0.00 0.00 90 1018.2
20260905105810 75 150 0.0 0.0 0.00 0.00 0.00 90 1018.1
20260905105309 75 143 0.0 0.0 0.00 0.00 0.00 90 1018.0
20260905104803 75 143 0.0 0.0 0.00 0.00 0.00 90 1018.0
20260905104300 75 147 0.0 0.0 0.00 0.00 0.00 90 1017.8
20260905103759 75 145 0.0 0.0 0.00 0.00 0.00 89 1017.9
20260905103255 75 145 0.0 0.0 0.00 0.00 0.00 89 1017.7
20260905102750 75 145 0.0 1.0 0.00 0.00 0.00 89 1017.9
20260905102247 75 149 0.0 1.0 0.00 0.00 0.00 89 1017.9
20260905101741 75 155 1.0 1.0 0.00 0.00 0.00 89 1017.8
20260905101239 75 140 0.0 0.0 0.00 0.00 0.00 89 1017.7
20260905100734 75 147 0.0 0.0 0.00 0.00 0.00 89 1018.0
20260905100230 75 149 0.0 1.0 0.00 0.00 0.00 88 1017.9
20260905095729 75 140 0.0 0.0 0.00 0.00 0.00 88 1017.6
20260905095229 75 146 0.0 0.0 0.00 0.00 0.00 87 1017.5
20260905094724 75 146 0.0 0.0 0.00 0.00 0.00 87 1017.4
20260905094219 75 146 0.0 0.0 0.00 0.00 0.00 87 1017.5